Location: Cerroniocc
(13.7547°S, 72.0222°W)
Time: 19:33:28
(UTC+00:00)

Helios 1A Rocket - Pass Details

Date: 05 July 2020
Orbit: 562 x 587 km, 98.3° (Epoch: 11 August)

Event Time Altitude Azimuth Distance (km) Brightness Sun altitude
Rises 23:08:56 0° 166° (SSE) 2,822 6.1 -8.9°
Reaches altitude 10° 23:11:06 10° 164° (SSE) 1,919 5.2 -9.4°
Maximum altitude 23:15:16 75° 78° (ENE) 612 2.9 -10.3°
Drops below altitude 10° 23:19:24 10° 353° (N) 1,904 6.0 -11.2°
Sets 23:21:32 0° 351° (N) 2,798 6.9 -11.7°
